www.pogodaiklimat.ru

Погода и климат >> Архив погоды >> Аргентина >> Вилла Долорес


ПОГОДА в Вилла Долорес

  • Прогноз погоды в Вилла Долорес
  • Монитор погоды в Вилла Долорес

АРХИВ ПОГОДЫ в Вилла Долорес

Время (UTC), дата Ветер
(напр.,м/с)
 
Видим.   Явления Облачность Т
(С)
Тd
(С)
f
(%)
Тe
(С)
Тes
(С)
Комфортность P
(гПа)
Po
(гПа)
Тmin
(С)
Tmax
(С)
R
(мм)
R24
(мм)
S
(см)
09 16.02 ЮВ 3 30 км 6/6 1200 м
[Sc]
+17.3 +15.0 86 +17 +17 1014.0 950.4
12 16.02 ЮВ 2 30 км дым 4/4 1200 м
[Sc]
+20.4 +16.6 79 +24 +27 комфорт 1015.2 951.2 +16.4 +26.3
15 16.02 СЗ 2 30 км дым 3/3 1200 м
[Cu hum]
+25.4 +18.0 64 +30 +42 душно 1014.2 950.4
18 16.02 штиль 0 30 км 1/1 1200 м
[Cu hum]
+28.4 +17.7 52 +33 +53 опасность
солнечного
удара
1012.4 948.6
21 16.02 З 2 30 км 3/3 1200 м
[Cu Sc]
+30.2 +20.2 55 +37 +39 очень
душно
1010.6 947.0
00 17.02 СЗ 1 30 км 4/4 1200 м
[Sc]
+27.1 +19.5 63 +33 +33 очень
душно
1010.8 947.3 +20.4 +30.5
03 17.02 СВ 4 30 км ясно +21.9 +16.3 71 +26 +26 душно 1011.8 948.1
06 17.02 СВ 4 30 км ясно +20.8 +15.8 73 +24 +24 комфорт 1011.9 948.5
09 17.02 СВ 2 30 км ясно +18.4 +15.1 81 +19 +19 1011.2 947.7
12 17.02 В 2 30 км ясно +21.6 +14.9 66 +25 +29 комфорт 1012.4 948.8 +16.3 +27.1
15 17.02 штиль 0 30 км ясно +27.4 +16.1 50 +31 +54 опасность
солнечного
удара
1011.7 948.2
18 17.02 С 5 30 км ясно +32.0 +15.4 37 +34 +43 душно 1008.3 945.4
21 17.02 С 3 30 км 1/1 1200 м
[Cu hum]
+32.3 +15.0 35 +34 +37 душно 1006.8 943.8
00 18.02 С 3 30 км ясно +26.4 +16.7 55 +30 +30 душно 1006.7 943.4 +21.6 +32.9
03 18.02 В 1 30 км ясно +22.8 +16.8 69 +28 +28 душно 1007.4 944.4
06 18.02 СВ 4 30 км ясно +21.4 +16.6 74 +25 +25 комфорт 1006.9 944.2
09 18.02 С 5 30 км ясно +22.8 +17.8 73 +28 +28 душно 1006.2 943.7
12 18.02 СВ 2 30 км 1/1 1500 м
[Cu hum]
+24.4 +17.2 64 +28 +33 душно 1009.1 946.0 +20.6 +26.4
15 18.02 штиль 0 30 км 4/4 1500 м
[Cu hum]
+28.2 +17.4 52 +32 +46 душно 1009.1 946.0
18 18.02 С 3 30 км 3/3 1500 м
[Cu med, cong]
+30.6 +16.7 43 +34 +44 очень
душно
1006.7 943.8
21 18.02 СЗ 2 30 км 3/1 1500 м
[Cu hum]
+32.4 +17.4 41 +36 +39 очень
душно
1005.4 942.9
00 19.02 В 2 30 км ясно +27.2 +16.9 53 +31 +31 душно 1005.8 943.0 +24.4 +32.8
03 19.02 СВ 3 30 км ясно +23.2 +16.5 66 +28 +28 душно 1007.8 944.9
06 19.02 В 3 30 км ясно +21.8 +16.7 73 +26 +26 душно 1007.7 944.9
09 19.02 Ю 2 30 км 3/0
[Ci]
+21.2 +16.7 75 +25 +25 комфорт 1007.7 945.0
12 19.02 В 1 30 км ясно +23.4 +15.9 63 +28 +33 душно 1009.3 946.2 +19.4 +27.2
15 19.02 СЗ 2 30 км 1/1 1200 м
[Sc]
+30.2 +16.0 42 +33 +50 душно 1008.2 946.0
18 19.02 СЗ 1 30 км 4/4 1200 м
[Cu med, cong]
+34.9 +16.6 34 +38 +49 очень
душно
1005.8 943.4
21 19.02 В 1 30 км 5/4 1200 м
[Cb calv Ac cast]
+34.5 +17.5 37 +38 +40 очень
душно
1004.2 941.8
00 20.02 СВ 2 30 км 1/1 1200 м
[Cu hum]
+28.0 +18.6 57 +33 +33 очень
душно
1004.8 942.0 +23.4 +35.4
03 20.02 В 3 30 км ясно +24.4 +18.1 68 +29 +29 душно 1007.3 944.8
06 20.02 СВ 4 30 км ясно +24.0 +17.5 67 +28 +28 душно 1006.9 944.6
09 20.02 СВ 3 30 км ясно +23.7 +17.3 67 +28 +28 душно 1006.5 944.2
12 20.02 С 4 30 км ясно +27.9 +17.4 53 +32 +35 душно 1007.1 944.6 +22.9 +28.0
15 20.02 ЮЗ 3 30 км ясно +32.1 +18.7 45 +37 +53 опасность
солнечного
удара
1006.8 944.4
18 20.02 СЗ 3 30 км 1/1 1200 м
[Sc]
+35.2 +18.0 36 +39 +51 опасность
солнечного
удара
1005.4 943.3
21 20.02 СЗ 7 30 км 1/1 1200 м
[Cu med, cong]
+35.9 +13.8 27 +37 +37 душно 1002.6 940.8
00 21.02 С 3 30 км ясно +30.9 +14.3 36 +33 +33 душно 1001.5 939.6 +27.9 +36.6
03 21.02 СВ 1 30 км ясно +27.5 +18.0 56 +32 +32 очень
душно
1003.6 941.7
06 21.02 СВ 3 30 км ясно +25.7 +17.3 60 +30 +30 душно 1003.9 942.1
09 21.02 СВ 5 30 км ясно +26.3 +18.2 61 +31 +31 душно 1003.7 942.1
12 21.02 СЗ 7 30 км ясно +28.4 +17.5 52 +33 +34 очень
душно
1006.6 944.5 +24.7 +31.1
15 21.02 С 9 30 км ясно +33.6 +17.6 39 +37 +40 очень
душно
1006.8 944.9
18 21.02 С 7 30 км 1/1 1200 м
[Cu hum]
+35.6 +17.6 35 +39 +43 очень
душно
1005.7 943.8
21 21.02 С 8 30 км 1/1 1200 м
[Cu hum]
+36.1 +14.3 27 +37 +38 душно 1004.2 942.5
00 22.02 С 3 30 км ясно +29.6 +16.8 46 +33 +33 душно 1004.6 942.5 +28.4 +37.1
03 22.02 СВ 3 30 км ясно +28.4 +16.2 48 +32 +32 душно 1005.5 943.7
06 22.02 СВ 5 30 км ясно +28.4 +16.9 50 +32 +32 душно 1005.1 943.6
09 22.02 СВ 3 30 км ясно +25.7 +18.0 62 +30 +30 душно 1005.5 943.7
12 22.02 СВ 4 30 км 1/1 1200 м
[Sc diur, vesp]
+28.8 +18.3 53 +34 +36 очень
душно
1007.0 944.8 +25.0 +29.6
15 22.02 СЗ 6 30 км 3/3 1200 м
[Sc]
+34.4 +20.1 43 +40 +45 очень
душно
1006.0 944.2
18 22.02 З 4 30 км 4/4 1200 м
[Cu Sc]
+36.4 +20.5 40 +43 +50 опасность
перегрева
1004.9 943.4
21 22.02 Ю 8 30 км 6/6 1200 м
[Cu med, cong]
+37.4 +20.8 38 +44 +44 опасность
перегрева
1003.6 942.1
00 23.02 Ю 4 20 км зарница 3/3 900 м
[Cb calv]
+27.8 +20.7 65 +35 +35 очень
душно
1005.0 942.8 +27.6 +37.8
03 23.02 ЮВ 3 20 км зарница туман 8/8 900 м
[Cb cap]
+24.6 +20.3 77 +30 +30 очень
душно
1008.0 945.7
06 23.02 штиль 0 20 км зарница туман 8/5 1200 м
[Cb cap Ac As]
+23.2 +18.6 75 +29 +29 душно 1006.5 944.4

 

Местоположение метеостанции Вилла Долорес (Аргентина): широта -31.95 долгота -65.13 высота над уровнем моря 569 м.

В архиве по умолчанию представлена погода в Вилла Долорес за последнюю неделю. Архивные данные за месяц целиком и за предыдущие месяцы, начиная с января 2011 года, Вы можете получить, выбрав интересующий диапазон дат из раскрывающегося списка и нажав кнопку "Ввод!".


*Определитесь, кто Вы:
робот инопланетянин человек

Внимание! Время в таблицах - всемирное. Для получения местного времени необходимо прибавить поправку, которая равна -3 ч.

Смотрите также архив погоды в соседних городах и на ближайших метеорологических станциях:

Погода в Кордове (Аргентина) (113 км)
Погода в Пиларе (Аргентина) (122 км)
Погода в Рио-Куарто (Аргентина) (150 км)
Погода в Сан-Луисе (Аргентина) (185 км)
Погода в Вилья Рейнольдс (Аргентина) (199 км)
Погода в Чамикале (Аргентина) (208 км)
Погода в Вилла де Мария дель Рио Секо (Аргентина) (267 км)
Погода в Маркос Хуарес (Аргентина) (292 км)
Погода в Лабоулайе (Аргентина) (293 км)
Погода в Сан-Хуане (Аргентина) (316 км)

Пояснения к столбцам:

Ветер - указаны скорость ветра в м/с - средняя за 10 мин, порывы в срок и между сроками (в фигурных скобках) и направление, откуда дует ветер: С - северный, СВ - северо-восточный, В - восточный, ЮВ - юго-восточный, Ю - южный, ЮЗ - юго-западный, З - западный, СЗ - северо-западный.
Видимость - горизонтальная дальность видимости в метрах или километрах. При видимости от 1 до 10 км при отсутствии осадков обычно наблюдается дымка, при ухудшении видимости до 1 км и менее - туман. В сухую погоду видимость может ухудшаться дымом, пылью или мглою.
Явления - указаны атмосферные явления, наблюдавшиеся в срок или в последний час перед сроком; фигурными скобками обозначены явления, наблюдавшиеся между сроками (за 1-3 часа до срока); квадратными скобками обозначены град или гололедные отложения с указанием их диаметра в мм.
Облачность - указаны через наклонную черту общая и нижняя облачность в баллах и высота нижней границы облаков в метрах; квадратными скобками обозначены формы облаков: Ci - перистые, Cs - перисто-слоистые, Cc - перисто-кучевые, Ac - высококучевые, As - высокослоистые, Sc - слоисто-кучевые, Ns - слоисто-дождевые, Cu - кучевые, Cb - кучево-дождевые. Подробнее классификацию облаков см. в Атласе облаков (PDF).
T - Температура воздуха - температура, измеренная на высоте 2 м над землей.
Td - Температура точки росы - температура, при понижении до которой содержащийся в воздухе водяной пар достигнет насыщения.
f - Относительная влажность воздуха - влажноcть воздуха, измеренная на высоте 2 м над землей.
Te - Эффективная температура - температура, которую ощущает одетый по сезону человек в тени. Характеристика душности погоды. При расчете учитывается влияние влажности воздуха и скорости ветра на теплоощущения человека.
Tes - Эффективная температура на солнце - температура, которую ощущает человек, с поправкой на солнечный нагрев. Характеристика знойности погоды. Зависит от высоты солнца над горизонтом, облачности и скорости ветра. Ночью, в пасмурную погоду, а также при ветре 12 м/с и более поправка равна нулю.
P - Атмосферное давление - приведенное к уровню моря атмосферное давление.
Po - Атмосферное давление - измеренное на уровне метеостанции атмосферное давление.
Tmin - Минимальная температура - минимум температуры воздуха на высоте 2 м над землей.
Tmax - Максимальная температура - максимум температуры воздуха на высоте 2 м над землей.
R - Количество осадков - Количество выпавших осадков за период времени, мм. При наведении курсора мыши на число - период времени, за который выпало указанное количество осадков.
R24 - Количество осадков - Количество выпавших осадков за 24 часа, мм.
S - Снежный покров - Высота снежного покрова, см. При наведении курсора мыши на число - состояние снежного покрова и степень покрытия местности в баллах.